User: anonymous   Login
Location: Darlington Observatory
(36.4817°N, 105.8156°W)
Time: 13:54:54
(UTC-06:00)
Language:

Cosmos 2278 Rocket - Orbit

View from above orbital plane
View from above orbital plane
View from above satellite
View from above satellite

Ground track
Ground track

The orbit data is extracted from the following two-line orbital elements,

1 23088U 94023B   15216.21122739  .00000217  00000-0  13773-3 0  9995
2 23088 070.9992 275.5012 0001853 024.1146 336.0063 14.14620440 98954
Epoch (UTC): 04 August 2015 05:04:10
Eccentricity: 0.0001853
inclination: 70.9992°
perigee height: 842 km
apogee height: 845 km
right ascension of ascending node: 275.5012°
argument of perigee: 24.1146°
revolutions per day: 14.14620440
mean anomaly at epoch: 336.0063°
orbit number at epoch: 9895

The dashed part of the orbit path shows where the satellite is in the earth's shadow,  

DLR